Regional Weather Roundup
Issued by NWS

Home | Current Version | Previous Version | Graphics & Text | Print | Product List | Glossary Off
Versions: 1 2 3 4 5 6 7 8 9 10 11 12 13 14 15 16 17 18 19 20 21 22 23 24 25 26 27 28 29 30 31 32 33 34 35 36 37 38 39 40 41 42 43 44 45 46 47 48 49 50

000
ASUS43 KDTX 210701
RWRMI
MICHIGAN HOURLY REGIONAL WEATHER ROUNDUP
NATIONAL WEATHER SERVICE DETROIT/PONTIAC MI
300 AM EDT TUE APR 21 2015

NOTE: "FAIR" INDICATES FEW OR NO CLOUDS BELOW 12,000 FEET WITH NO
SIGNIFICANT WEATHER AND/OR OBSTRUCTION TO VISIBILITY.

MIZ047>049-052>055-059>063-066>070-074>076-081>083-210800-
SOUTHEAST LOWER MICHIGAN

CITY           SKY/WX    TMP DP  RH WIND       PRES   REMARKS
ADRIAN         PTCLDY    40  32  73 SW7       29.62S
ALMA           CLOUDY    40  37  86 SW8       29.52S
ANN ARBOR      CLOUDY    43  32  65 SW9       29.59S
BAD AXE        CLOUDY    40  36  84 SW9       29.51S WCI  34
CARO           CLOUDY    41  35  80 SW12      29.52S
DETROIT CITY   CLOUDY    45  32  60 W10G21    29.59S
DETROIT        CLOUDY    46  33  60 SW15G23   29.61S
FLINT          CLOUDY    44  34  67 SW12      29.55F
GROSSE ILE     CLOUDY    46  36  66 SW10      29.59F
HILLSDALE      MOCLDY    41  33  71 SW10      29.60S
HOWELL         CLOUDY    42  33  71 SW14      29.56S

CITY           SKY/WX    TMP DP  RH WIND       PRES   REMARKS
JACKSON        CLOUDY    42  32  67 SW10      29.57F
LAMBERTVILLE   CLEAR     43  32  65 SW10G17   29.64S
LANSING        CLOUDY    42  32  67 SW14      29.56S
LAPEER         CLOUDY    42  33  71 W8        29.54F
MASON          CLOUDY    40  32  73 SW6       29.56F
MONROE         CLEAR     43  34  70 SW13      29.61R
PONTIAC        CLOUDY    42  33  70 SW9       29.55F
PORT HOPE        N/A     41  36  82 SW8       29.48S
PORT HURON     CLOUDY    43  36  75 SW7       29.56F
TRI CITIES     CLOUDY    43  35  73 SW17      29.51S
TROY           CLOUDY    45  34  64 SW12G17   29.59S
SAGINAW HB     CLOUDY    41  34  75 SW13      29.52S
$$
MIZ043>046-050>051-056>058-064>065-071>073-077>080-210800-
SOUTHWEST LOWER MICHIGAN

CITY           SKY/WX    TMP DP  RH WIND       PRES   REMARKS
BATTLE CREEK   CLOUDY    42  32  67 SW12      29.57F
BENTON HARBOR  PTCLDY    41  35  79 SW15      29.60S
BIG RAPIDS     CLOUDY    38  33  82 SW8       29.48S WCI  32
COLDWATER      CLOUDY    41  33  74 SW10      29.60F
FREMONT        CLOUDY    38  33  81 SW8       29.49F WCI  33
HOLLAND        CLOUDY    43  32  65 SW22G28   29.55F
GRAND RAPIDS   CLOUDY    41  33  73 SW14      29.53F
IONIA          DRIZZLE   41  34  76 SW12      29.53F
KALAMAZOO      CLOUDY    43  32  65 SW12      29.58F
LUDINGTON      LGT RAIN  40  35  80 SW13      29.47F WCI  33
MARSHALL       LGT RAIN  41  32  71 SW12      29.57F
MOUNT PLEASANT CLOUDY    40  33  77 SW9G16    29.49F WCI  34
MUSKEGON       CLOUDY    40  33  76 SW14      29.52F WCI  32
SOUTH HAVEN    CLOUDY    43  33  68 W15G26    29.57F
$$
MIZ016>042-210800-
NORTHERN LOWER MICHIGAN

CITY           SKY/WX    TMP DP  RH WIND       PRES   REMARKS
ALPENA         CLOUDY    40  35  83 SW8       29.42F WCI  34
BEAVER ISLAND  CLOUDY    36  33  87 SW10G20   29.37S WCI  28
BELLAIRE       CLOUDY    38  35  86 SW6       29.42F WCI  34
CADILLAC       CLOUDY    36  34  91 SW12      29.42F WCI  28
CHARLEVOIX     CLOUDY    37  36  93 SW8       29.42F WCI  31
FRANKFORT      CLOUDY    41  32  70 SW9G17    29.42F
GAYLORD        CLOUDY    34  34 100 SW9       29.39F WCI  27
GRAYLING       CLOUDY    37  33  88 SW8G16    29.42F WCI  30
HARBOR SPRINGS CLOUDY    36  33  90 SW9       29.38F WCI  29
HOUGHTON LAKE  CLOUDY    37  33  85 SW12G20   29.44F WCI  29
MANISTEE       CLOUDY    39  30  70 SW6       29.45F WCI  35
OSCODA         CLOUDY    41  35  77 SW12      29.45S
PELLSTON       CLOUDY    38  34  85 SW8       29.38F WCI  32
ROGERS CITY    CLOUDY    37  36  95 S6        29.41F WCI  32
TRAVERSE CITY  CLOUDY    38  33  82 SW7       29.41F WCI  33
$$
MIZ007>008-015-210800-
EASTERN UPPER MICHIGAN

CITY           SKY/WX    TMP DP  RH WIND       PRES   REMARKS
KINROSS        CLOUDY    36  34  93 SW3       29.35F
MACKINAC ISLAN CLOUDY    37  36  98 SW9       29.36F WCI  30
NEWBERRY       CLOUDY    33  33  99 S8        29.33S WCI  26
S. S. MARIE    CLOUDY    36  33  89 SW8       29.34S WCI  30
$$
MIZ004>006-011>014-085-210800-
CENTRAL UPPER MICHIGAN

CITY           SKY/WX    TMP DP  RH WIND       PRES   REMARKS
MANISTIQUE     CLOUDY    37  35  93 SW7       29.33F WCI  31
ESCANABA       CLOUDY    37  30  75 SW9       29.34F WCI  31
MENOMINEE      MOCLDY    37  27  65 SW8       29.38S WCI  31
$$
MIZ001>003-009>011-084-210800-
WESTERN UPPER MICHIGAN

CITY           SKY/WX    TMP DP  RH WIND       PRES   REMARKS
IRON MOUNTAIN  FLURRIES  35  28  75 W9        29.31S WCI  28
HOUGHTON       LGT SNOW  33  30  88 W17       29.22F FOG     WCI  22
COPPER HARBOR    N/A     34  31  88 NW8       29.22S WCI  27
IRONWOOD       CLOUDY    32  30  93 W17       29.28F WCI  21
$$

ABBREVIATIONS USED IN REMARKS
   TC - TEMPERATURE IN CELSIUS
  WCI - WIND CHILL INDEX
   HX - HEAT INDEX
  VSB - VISIBILITY



USA.gov is the U.S. government's official web portal to all federal, state and local government web resources and services.